loading
|

ATLAS CENTAUR 2 DEB, 739

Orbit data source: Space-Track

ATLAS CENTAUR 2 DEB, 739 is space debris in LEO originally from a launch on Wed, 27 Nov 1963 UTC launched from the Air Force Eastern Test Range (AFETR). Debris objects in space refer to the collection of defunct objects orbiting the Earth. Examples of debris include non-operational satellites, rocket bodies, and fragments generated from explosions, collisions, or faulty payload assembly.

Loading next visibility...
Loading greatness...
ATLAS CENTAUR 2 DEB details
Identifier
739, 1963-047H
Orbit
LEO
Last TLE update13 hours ago
Origin
Flag of USNASA LeRC (US)
ManufacturerGD/Convair
Mission statusUnknown
MissionUnknown
Bus & MotorCENTAUR PART, Unknown motor
MassUnknown
Launch date (UTC)
1963-11-27 (61 years ago)
Launch vehicleUnknown
Launch site
Air Force Eastern Test Range (AFETR)
Object type
Payload
Rocket body
Debris
Radar Cross Section0.29 m², Medium (>0.1 m² and < 1m²)

Expand to show TLE details & history

TLE from 13 hours ago
0 ATLAS CENTAUR 2 DEB
1 00739U 63047H   24258.73963133  .00001439  00000-0  23096-3 0  9995
2 00739  30.4224 279.4077 0639890  44.7507 320.2939 13.84157890 52544
Epoch: 2024-09-14T17:45Z
Definitive object data (Epoch: 2024-09-14T17:45:04.146Z)
Latitude-0.00003°
Longitude18.94735°
Altitude600.264 km
Speed7.739 km/s
True Right ascension18h 37m 37s
True Declination0° 00' 00"
Sunlit
Object was in daylight at TLE epoch
Predictive object data (real-time)
Latitude25.18115°
Longitude143.34617°
Altitude791.439 km
Speed7.541 km/s
Apparent Right ascension06h 02m 25s
Apparent Declination-10° 17' 35"
Sunlit
Object is in full shadow
Predictive observer data (real-time)
Local Sidereal Time23:02:32
Azimuth88.429° E
Elevation-18.037°
Doppler factor1
Orbital elements
Apogee1,422.01 km
Perigee483.798 km
Semi-major axis7,331.041 km
Eccentricity0.063989
Inclination30.4224°
RAAN279.4077°
Arg. of periapsis44.7507°
True anomaly315.30952°
Mean anomaly320.2939°
Eccentric anomaly317.83272°
Mean motion3.45776 °/min
BSTAR0.00023096
Period104.11 mins
No data available

ATLAS CENTAUR 2 DEB Visibility forecast

Observer location: 39.9160978°, -105.1181434

ATLAS CENTAUR 2 DEB is not visible in the next 10 days
Span
Click to sort rows by Start time (UTC) header in descending order
Start Az.
Max El. time (UTC)
Max El. Az.
Max El.
End time (UTC)
End Az.